SCP
0 0 0 0 0 0 0 0 0 0 0 0 0 0 0 0 0 0 0 0 0 0 0 0 0 0 0 0 0 0 0 0 0 0 0 0 0 0
0 0 0 0 0 0 0 0 0 0 0 0 0 0 0 0 0 0 0 0 0 0 0 0 0 0 0 0 0 0 0 0 0 0 0 0 0 0
0 0 0 0 0 0 0 0 0 0 0 0 0 0 0 0 0 0 0 0 0 0 0 0 0 0 0 0 0 0 0 0 0 0 0 0 0 1
0 0 0 0 0 0 0 0 0 0 0 0 0 0 0 0 0 0 0 0 0 0 0 0 0 0 0 0 0 0 0 0 0 0 0 0 1 1
0 0 0 0 0 0 0 0 0 0 0 0 0 0 0 0 0 0 0 0 0 0 0 0 0 0 0 0 0 0 0 0 0 0 0 0 1 1
0 0 0 0 0 0 0 0 0 0 0 0 0 0 0 0 0 0 0 0 0 0 0 0 0 0 0 0 0 0 0 0 0 0 0 0 0 0
0 0 0 0 0 0 0 0 0 0 0 0 0 0 0 0 0 0 0 0 0 0 0 0 0 0 0 0 0 0 0 0 0 0 0 0 0 0
0 0 0 0 0 0 0 0 0 0 0 0 0 0 0 0 0 0 0 0 0 0 0 0 0 0 0 0 0 0 0 0 0 0 0 0 0 0
0 0 0 0 0 0 0 0 0 0 0 0 0 0 0 0 0 0 0 0 0 0 0 0 0 0 0 0 0 0 0 0 0 0 0 0 0 0
0 0 0 0 0 0 0 0 0 0 0 0 0 0 0 0 0 0 0 0 0 0 0 0 0 0 0 0 0 0 0 0 0 0 0 0 0 0
0 0 0 0 0 0 0 0 0 0 0 0 0 0 0 0 0 0 0 0 0 0 0 0 0 0 0 0 0 0 0 0 0 0 0 0 0 0
0 0 0 0 0 0 0 0 0 0 0 0 0 0 0 0 0 0 0 0 0 0 0 0 0 0 0 0 0 0 0 0 0 0 0 0 0 0
0 0 0 0 0 0 0 0 0 0 0 0 0 0 0 0 0 0 0 0 0 0 0 0 0 0 0 0 0 0 0 0 0 0 0 0 0 0
0 0 0 0 0 0 0 0 0 0 0 0 0 0 0 0 0 0 0 0 0 0 0 0 0 0 0 0 0 0 0 0 0 0 0 0 0 0
0 0 0 0 0 0 0 0 0 0 0 0 0 0 0 0 0 0 0 0 0 0 0 0 0 0 0 0 0 0 0 0 0 0 0 0 0 0
0 0 0 0 0 0 0 0 0 0 0 0 0 0 0 0 0 0 0 0 0 0 0 0 0 0 0 0 0 0 0 0 0 0 0 0 0 0
0 0 0 0 0 0 0 0 0 0 0 0 0 0 0 0 0 0 0 0 0 0 0 0 0 0 0 0 0 0 0 0 0 0 0 0 0 0
0 0 0 0 0 0 0 0 0 0 0 0 0 0 0 0 0 0 0 0 0 0 0 0 0 0 0 0 0 0 0 0 0 0 0 0 0 0
0 0 0 0 0 0 0 0 0 0 0 0 0 0 0 0 0 0 0 0 0 0 0 0 0 0 0 0 0 0 0 0 0 0 0 0 0 0
0 0 0 0 0 0 0 0 0 0 0 0 0 0 0 0 0 0 0 0 0 0 0 0 0 0 0 0 0 0 0 0 0 0 0 0 0 0
0 0 0 0 0 0 0 0 0 0 0 0 0 0 0 0 0 0 0 0 0 0 0 0 0 0 0 0 0 0 0 0 0 0 0 0 0 0
0 0 0 0 0 0 0 0 0 0 0 0 0 0 0 0 0 0 0 0 0 0 0 0 0 0 0 0 0 0 0 0 0 0 0 0 0 0
0 0 0 0 0 0 0 0 0 0 0 0 0 0 0 0 0 0 0 0 0 0 0 0 0 0 0 0 0 0 0 0 0 0 0 0 0 0
Wind_Speed
15 16 14 13 13 13 13 14 14 17 19 18 15 14 12 12 15 15 17 22 26 28 29 30 31 31 32 33 33 32 31 30 28 28 27 27 26 26
13 16 16 13 13 13 13 14 14 16 19 16 14 13 12 11 16 17 17 23 26 27 28 29 30 31 31 32 32 32 32 31 30 30 29 28 27 26
16 17 18 18 14 13 13 14 14 14 18 20 16 15 17 17 15 15 15 16 15 24 26 28 28 29 30 31 32 33 32 32 31 31 31 30 29 28
17 17 18 15 18 15 14 16 15 15 17 22 19 15 17 16 16 16 14 13 14 20 24 25 27 28 29 30 31 31 31 31 31 31 31 30 29 28
18 18 18 17 18 15 16 15 14 14 14 17 19 15 13 12 14 14 16 15 15 16 21 24 26 28 28 29 29 30 30 30 31 30 30 29 29 29
17 17 18 18 18 18 15 16 15 15 15 15 16 14 13 12 11 12 13 13 13 13 16 17 21 25 27 28 28 28 28 28 30 30 29 28 27 27
17 17 18 21 23 20 16 14 14 13 13 14 15 14 13 11 11 11 13 12 13 11 11 11 12 12 15 22 26 27 27 28 29 30 30 29 28 27
18 17 18 19 22 26 29 28 24 17 15 15 14 15 15 14 12 11 12 11 11 9 11 11 10 11 11 11 18 23 25 26 27 28 28 28 27 27
17 16 14 14 20 16 20 25 25 28 27 18 17 17 16 14 13 14 14 13 14 9 7 10 9 11 10 12 20 22 24 25 25 26 26 27 27 26
17 17 17 17 15 17 14 15 16 17 19 16 14 15 15 14 12 13 13 13 13 10 9 9 9 10 9 10 17 22 24 25 25 25 25 25 25 25
16 16 17 17 21 24 18 16 16 14 19 25 26 23 25 25 19 10 10 10 11 10 10 8 8 9 9 9 12 19 22 24 25 26 26 25 25 24
14 14 19 20 23 25 17 15 16 15 13 12 15 18 17 17 21 13 9 10 9 8 9 9 8 7 6 8 9 9 13 19 24 25 25 25 24 16
12 11 12 21 24 25 23 16 18 18 13 12 11 10 9 9 9 9 8 9 10 8 6 9 8 8 7 5 6 8 9 9 11 15 20 24 24 20
13 12 13 22 25 26 21 20 23 21 10 9 9 8 8 8 7 8 8 9 9 9 7 9 8 8 8 7 6 6 8 8 9 9 9 15 20 24
13 20 24 26 24 18 18 21 18 11 9 9 9 8 7 7 6 6 6 7 9 8 8 10 9 8 9 8 7 7 6 7 9 9 9 10 10 11
13 17 22 22 17 17 16 13 9 8 8 8 8 7 6 6 6 6 6 6 7 7 9 11 11 11 9 10 8 8 8 6 7 9 9 9 10 11
15 11 10 9 9 8 8 8 8 7 8 7 8 7 6 6 6 6 6 6 7 7 7 8 9 9 10 8 9 9 9 9 8 9 9 10 11 12
17 10 10 9 9 9 8 8 8 7 7 7 7 7 7 6 6 5 6 7 7 7 7 7 7 6 6 8 12 11 10 10 9 10 10 11 12 12
11 9 9 9 9 8 8 8 8 8 7 7 7 7 6 6 6 6 6 7 7 7 6 6 7 8 10 10 10 16 12 10 9 10 10 11 13 12
8 9 9 9 9 8 8 8 8 7 7 6 7 6 6 6 6 6 6 7 7 7 6 7 8 9 10 9 7 7 16 12 10 11 10 11 12 14
9 9 9 9 8 8 8 8 8 7 7 7 6 6 6 6 6 6 6 8 8 7 7 7 7 9 6 5 6 7 9 15 15 11 11 11 12 12
9 9 9 9 8 8 8 7 7 7 7 6 6 5 5 5 6 6 6 6 6 7 7 5 4 6 7 9 10 10 9 9 14 21 22 19 12 11
9 9 9 9 8 7 7 7 8 7 6 6 5 5 5 5 5 5 6 6 6 6 6 5 5 6 8 9 10 10 11 11 10 11 13 20 28 31
Wind_Direction
259 258 255 254 253 252 252 251 259 273 274 273 268 258 247 246 249 250 251 252 251 250 249 246 244 243 242 241 241 240 240 239 238 236 235 236 237 239
264 262 261 259 257 254 252 252 249 256 270 272 271 270 264 253 253 254 255 257 254 253 252 250 247 244 243 241 240 239 238 238 238 238 236 235 236 237
268 265 264 263 263 260 257 254 251 250 260 270 270 269 266 260 255 254 256 257 256 252 252 251 250 247 244 242 241 239 237 236 236 236 236 236 235 236
273 271 270 269 266 264 261 258 256 252 255 267 272 271 267 264 260 257 256 256 257 256 253 253 252 250 247 244 242 240 238 237 236 235 235 235 236 237
276 274 273 272 270 267 265 263 261 259 256 261 269 271 269 264 261 257 256 256 258 258 256 253 252 251 249 247 243 240 238 237 236 236 235 236 236 237
274 272 271 269 267 267 266 265 264 262 260 260 265 267 265 260 254 253 253 249 251 252 253 251 251 251 250 248 245 243 240 238 236 235 234 235 236 238
274 271 269 267 266 266 264 261 257 257 257 257 260 262 258 252 246 244 249 252 251 246 248 246 247 245 243 245 245 243 241 238 236 236 234 233 233 234
281 278 275 273 272 272 272 270 266 260 256 255 257 256 256 251 247 242 243 246 250 234 236 241 234 240 239 237 238 240 241 239 238 236 234 234 234 234
283 282 279 276 277 272 273 274 275 274 270 266 263 261 261 255 249 244 238 238 243 238 230 242 233 237 236 237 239 237 238 239 240 238 236 235 236 235
282 281 281 281 278 277 272 269 266 266 266 268 263 265 265 262 251 246 245 245 248 240 222 239 236 236 235 233 237 238 239 239 239 239 238 237 237 238
283 282 282 281 281 282 280 274 272 268 267 265 262 262 261 259 251 240 233 234 240 232 213 224 236 237 236 234 232 233 236 237 238 238 237 236 236 236
286 283 282 281 282 283 281 279 278 277 272 270 266 265 265 266 264 247 231 233 235 233 207 207 222 220 235 231 227 224 229 235 236 236 235 234 233 233
288 286 283 284 285 286 284 279 278 281 278 272 266 260 251 246 247 243 229 228 233 232 200 194 211 209 219 227 217 218 220 224 227 232 234 234 234 231
291 289 287 289 290 289 288 283 286 289 280 274 270 263 252 245 238 233 226 226 230 234 214 197 206 205 210 221 224 213 214 218 222 225 224 229 233 235
289 289 292 293 294 293 288 288 289 284 278 274 271 266 259 252 239 228 221 225 231 229 219 206 209 209 213 222 226 223 219 218 218 223 224 223 224 227
293 292 293 291 287 284 285 285 279 274 273 272 274 272 267 253 241 231 227 219 225 222 213 212 214 215 219 224 228 229 222 220 213 218 223 228 229 229
301 295 291 291 289 287 285 283 281 277 273 269 268 267 263 253 242 228 225 221 223 222 209 204 212 217 227 228 229 230 229 230 228 225 227 233 234 233
305 297 295 295 295 294 292 287 282 278 275 272 267 264 259 254 248 232 221 221 225 225 216 200 195 200 215 233 229 236 236 235 234 231 230 237 241 237
300 294 294 294 293 292 290 288 285 284 282 275 270 266 260 254 249 237 222 221 226 226 218 202 199 206 220 233 221 214 230 236 236 235 234 237 245 246
295 293 294 294 292 291 291 289 287 285 280 275 271 266 261 255 249 239 229 226 227 226 220 210 209 215 225 240 246 222 218 231 237 240 241 244 251 256
299 296 294 293 292 291 289 286 285 283 280 278 272 266 261 255 250 243 238 233 231 229 227 224 221 222 233 242 246 239 229 229 237 243 246 249 253 254
298 297 295 293 293 291 289 287 284 281 278 272 272 267 260 255 251 247 243 239 233 233 238 235 208 211 218 229 241 248 247 240 242 246 248 246 247 249
299 299 297 296 293 291 289 287 284 282 280 276 272 267 261 256 253 250 243 239 240 236 235 231 222 221 228 235 245 250 253 251 250 250 247 246 248 254